[[{"header":{"parameterUnit":"m.s-1","parameterCategory":1,"la1":30.2991,"la2":30.254,"lo1":-89.0895,"lo2":-89.0444,"dy":0.0017,"dx":0.0017,"nx":28,"ny":28,"refTime":"2025-07-24T21:00:00:Z","depth":0,"parameterNumber":2,"parameterNumberName":"U-component_of_WINDS"},"data":[0,0,0,0,0,0,0,0,0,0,0,0,0,0,0,0,0,0,0,0,0,0,0,0,0,0,0,0,0,0,0,0,0,0,0,0,0,0,0,0,0,0,0,0,0,0,0,0,0,0,0,0,0,0,0,0,0,0,-1.7546,-1.7546,0,-1.7553,-1.7553,-1.7553,-1.7546,-1.7545,-1.7545,-1.7545,-1.7551,-1.7551,-1.7551,0,0,0,0,0,0,0,0,0,0,0,0,0,-1.7525,-1.7525,-1.7546,-1.7546,-1.7546,-1.7553,-1.7553,-1.7553,-1.7546,-1.7545,-1.7545,-1.7545,-1.7551,-1.7551,-1.7552,0,0,0,0,0,0,0,0,0,0,0,0,0,-1.7533,-1.7526,-1.7546,-1.7543,-1.7543,-1.7553,-1.7553,-1.7553,-1.7546,-1.7545,-1.7545,-1.7544,-1.755,-1.7551,-1.7552,-1.7564,0,0,-1.7554,-1.7554,0,0,0,0,0,0,0,0,-1.7533,-1.7534,-1.7544,-1.7543,-1.7543,-1.7548,-1.7548,-1.7556,-1.7546,-1.7545,-1.7545,-1.7544,-1.755,-1.7551,-1.7553,-1.7564,-1.7564,-1.7554,-1.7554,-1.7554,-1.7554,0,0,0,0,0,0,0,-1.7532,-1.7534,-1.7549,-1.7544,-1.7544,-1.7541,-1.7542,-1.7549,-1.755,-1.7545,-1.7544,-1.7545,-1.755,-1.7552,-1.7553,-1.7564,-1.7554,-1.7554,-1.7554,-1.7555,-1.7584,-1.7585,0,0,0,0,0,0,-1.7532,-1.7533,-1.7548,-1.7549,-1.7537,-1.7542,-1.7543,-1.7547,-1.7549,-1.7549,-1.7545,-1.7545,-1.7551,-1.7552,-1.7553,-1.7567,-1.7554,-1.7555,-1.7555,-1.7584,-1.7584,-1.7585,0,0,0,0,0,0,-1.7532,-1.7533,-1.7548,-1.7541,-1.7542,-1.7543,-1.7547,-1.7547,-1.7549,-1.755,-1.755,-1.7548,-1.7551,-1.7552,-1.7561,-1.7567,-1.7555,-1.7556,-1.7583,-1.7584,-1.7585,-1.7594,0,0,0,0,0,0,-1.7531,-1.7533,-1.7539,-1.7541,-1.7543,-1.7556,-1.7548,-1.7548,-1.7551,-1.755,-1.7552,-1.7552,-1.7551,-1.756,-1.7561,-1.7567,-1.7556,-1.7583,-1.7584,-1.7584,-1.7593,-1.7595,-1.7596,0,0,0,0,0,-1.753,-1.7541,-1.7539,-1.7541,-1.7549,-1.7557,-1.7558,-1.7556,-1.7551,-1.7556,-1.7556,-1.7552,-1.7566,-1.7561,-1.7563,-1.7569,-1.7583,-1.7583,-1.7584,-1.7593,-1.7595,-1.7596,0,0,0,0,0,0,-1.7539,-1.7541,-1.7539,-1.7551,-1.7554,-1.7556,-1.7562,-1.7559,-1.7563,-1.7562,-1.7559,-1.756,-1.7569,-1.7569,-1.7564,-1.758,-1.7573,-1.7575,-1.7579,-1.7581,-1.7582,-1.7582,-1.7557,0,0,0,0,0,-1.7543,-1.7549,-1.755,-1.7561,-1.7562,-1.7562,-1.7565,-1.7563,-1.7566,-1.7567,-1.7568,-1.757,-1.7575,-1.7578,-1.7582,-1.7593,-1.7593,-1.7598,-1.76,-1.7601,-1.7602,-1.7607,-1.7609,-1.7588,-1.7588,-1.7588,0,0,-1.755,-1.7552,-1.7556,-1.7562,-1.7564,-1.757,-1.7563,-1.757,-1.7574,-1.7568,-1.7576,-1.7576,-1.7579,-1.7588,-1.7593,-1.7589,-1.7608,-1.7602,-1.7603,-1.7604,-1.7608,-1.761,-1.7612,-1.7588,-1.7588,-1.7588,0,0,-1.7566,-1.7568,-1.7577,-1.7578,-1.7581,-1.7581,-1.7583,-1.7585,-1.7585,-1.7593,-1.7588,-1.7593,-1.7601,-1.7603,-1.7605,-1.7619,-1.7616,-1.7621,-1.7629,-1.7634,-1.7635,-1.7637,-1.7641,-1.7643,-1.7622,-1.7622,-1.7622,0,-1.7574,-1.7583,-1.7581,-1.7588,-1.759,-1.7585,-1.7593,-1.7595,-1.7599,-1.7601,-1.7597,-1.7607,-1.7608,-1.7617,-1.7621,-1.7623,-1.7624,-1.7621,-1.7635,-1.7637,-1.7638,-1.7642,-1.7644,-1.7622,-1.7622,-1.7622,-1.7622,0,-1.7593,-1.7599,-1.7605,-1.7609,-1.7613,-1.762,-1.7618,-1.7621,-1.7619,-1.7619,-1.7626,-1.7627,-1.7631,-1.7633,-1.7631,-1.7642,-1.764,-1.7636,-1.7629,-1.764,-1.7644,-1.7646,-1.7623,-1.7623,-1.7623,-1.7623,0,0,-1.7616,-1.7617,-1.762,-1.7621,-1.7623,-1.7627,-1.7634,-1.7638,-1.764,-1.7643,-1.7648,-1.7654,-1.765,-1.7652,-1.765,-1.7654,-1.7664,-1.7649,-1.7649,-1.7652,-1.7675,-1.7678,-1.768,-1.7662,-1.7662,-1.7663,-1.7675,0,-1.7631,-1.7643,-1.764,-1.7651,-1.7656,-1.7651,-1.7656,-1.7658,-1.7657,-1.766,-1.766,-1.7664,-1.7659,-1.766,-1.7663,-1.7662,-1.7669,-1.7662,-1.7666,-1.7666,-1.7665,-1.7682,-1.7685,-1.7697,-1.7676,-1.7676,-1.7677,0,-1.7651,-1.7654,-1.7665,-1.7665,-1.7667,-1.7673,-1.7675,-1.7679,-1.768,-1.7679,-1.7681,-1.7677,-1.7683,-1.7676,-1.7683,-1.7678,-1.7679,-1.7679,-1.7679,-1.7679,-1.7672,-1.7682,-1.7701,-1.7702,-1.7679,-1.7679,-1.7679,0,-1.7665,-1.7672,-1.768,-1.7681,-1.7681,-1.7685,-1.7685,-1.7686,-1.7688,-1.769,-1.7691,-1.7694,-1.7695,-1.7697,-1.7694,-1.7689,-1.7701,-1.7694,-1.77,-1.77,-1.7702,-1.7702,-1.7721,-1.7704,-1.7704,-1.7704,-1.7704,0,-1.7683,-1.769,-1.7686,-1.7691,-1.7698,-1.7695,-1.7702,-1.7701,-1.7702,-1.7705,-1.7701,-1.7704,-1.77,-1.7703,-1.7701,-1.7706,-1.7707,-1.7706,-1.7705,-1.7706,-1.7706,-1.7707,-1.7706,-1.7704,-1.7704,-1.7704,-1.7704,0,-1.77,-1.7698,-1.7706,-1.7705,-1.7705,-1.7711,-1.771,-1.7713,-1.7712,-1.7717,-1.7718,-1.7715,-1.7718,-1.7715,-1.7718,-1.7717,-1.7724,-1.7722,-1.7723,-1.7723,-1.7728,-1.7727,-1.7748,-1.775,-1.7732,-1.7732,-1.7732,0,-1.7712,-1.7717,-1.7716,-1.7719,-1.7719,-1.7723,-1.7725,-1.7721,-1.7723,-1.7724,-1.7727,-1.7729,-1.7731,-1.7736,-1.7734,-1.7736,-1.7734,-1.7741,-1.7734,-1.7735,-1.7733,-1.7733,-1.7733,-1.7742,-1.7743,-1.7743,-1.7743,0,-1.7731,-1.773,-1.7733,-1.7735,-1.7737,-1.7738,-1.774,-1.7741,-1.7737,-1.774,-1.7743,-1.7744,-1.7747,-1.7749,-1.775,-1.7749,-1.7745,-1.7745,-1.7746,-1.7747,-1.7748,-1.7747,-1.7727,-1.7745,-1.7744,-1.7744,-1.7744,-1.7744,-1.7746,-1.775,-1.775,-1.7753,-1.7753,-1.7754,-1.7757,-1.7755,-1.7758,-1.7759,-1.7757,-1.776,-1.776,-1.7761,-1.776,-1.7762,-1.7759,-1.7762,-1.7762,-1.7762,-1.7763,-1.7747,-1.7763,-1.7763,-1.7763,-1.7763,-1.7763,0,-1.7765,-1.7764,-1.7767,-1.7768,-1.777,-1.7766,-1.7766,-1.7768,-1.7771,-1.7771,-1.7773,-1.7775,-1.7777,-1.7775,-1.7776,-1.7778,-1.7776,-1.7778,-1.7778,-1.7778,-1.7766,-1.7764,-1.778,-1.778,-1.778,-1.778,-1.778,-1.778,-1.7775,-1.7781,-1.7779,-1.7784,-1.7784,-1.7787,-1.7787,-1.7788,-1.7787,-1.779,-1.7792,-1.779,-1.7789,-1.779,-1.7791,-1.779,-1.779,-1.7793,-1.7792,-1.7781,-1.7779,-1.7777,-1.7776,-1.7794,-1.7794,-1.7803,-1.7804,-1.7804]},{"header":{"parameterUnit":"m.s-1","parameterCategory":1,"la1":30.2991,"la2":30.254,"lo1":-89.0895,"lo2":-89.0444,"dy":0.0017,"dx":0.0017,"nx":28,"ny":28,"refTime":"2025-07-24T21:00:00:Z","depth":0,"parameterNumber":3,"parameterNumberName":"V-component_of_WINDS"},"data":[0,0,0,0,0,0,0,0,0,0,0,0,0,0,0,0,0,0,0,0,0,0,0,0,0,0,0,0,0,0,0,0,0,0,0,0,0,0,0,0,0,0,0,0,0,0,0,0,0,0,0,0,0,0,0,0,0,0,4.8221,4.8222,0,4.8301,4.8302,4.8302,4.8237,4.8234,4.8231,4.8229,4.8306,4.8311,4.8315,0,0,0,0,0,0,0,0,0,0,0,0,0,4.8009,4.8013,4.8221,4.8222,4.8223,4.8301,4.8302,4.8303,4.8237,4.8234,4.8231,4.8227,4.8305,4.831,4.8316,0,0,0,0,0,0,0,0,0,0,0,0,0,4.8096,4.8014,4.8221,4.82,4.8199,4.83,4.8302,4.8303,4.8238,4.8234,4.823,4.8226,4.8303,4.831,4.8317,4.8442,0,0,4.8338,4.8341,0,0,0,0,0,0,0,0,4.8091,4.8104,4.8202,4.8202,4.82,4.8255,4.8255,4.8349,4.8239,4.8223,4.8229,4.8224,4.8292,4.83,4.8324,4.8445,4.8449,4.8338,4.8343,4.8346,4.8348,0,0,0,0,0,0,0,4.8085,4.81,4.8252,4.8203,4.8203,4.8185,4.8193,4.8273,4.828,4.8224,4.8219,4.823,4.8291,4.8317,4.8325,4.845,4.8338,4.8344,4.8349,4.8351,4.8677,4.8681,0,0,0,0,0,0,4.8082,4.8095,4.825,4.8255,4.8135,4.8192,4.8201,4.8241,4.8279,4.828,4.8233,4.8227,4.8307,4.8317,4.8327,4.8475,4.8346,4.8352,4.8356,4.8672,4.8678,4.8683,0,0,0,0,0,0,4.8077,4.8096,4.8247,4.8174,4.8192,4.82,4.8246,4.8245,4.8271,4.8286,4.8286,4.8259,4.8304,4.8318,4.8414,4.8477,4.8355,4.8361,4.8667,4.8674,4.868,4.8772,0,0,0,0,0,0,4.8072,4.8095,4.8144,4.8176,4.8196,4.8333,4.825,4.825,4.8284,4.8276,4.831,4.8312,4.8302,4.8404,4.8421,4.8484,4.8367,4.8661,4.867,4.8678,4.8763,4.8781,4.8796,0,0,0,0,0,4.8064,4.8166,4.8146,4.8165,4.8257,4.8337,4.8348,4.8337,4.8289,4.8337,4.8346,4.831,4.8468,4.8414,4.8433,4.8499,4.8657,4.8668,4.8677,4.8756,4.8778,4.8796,0,0,0,0,0,0,4.814,4.817,4.8148,4.8264,4.8299,4.8326,4.8386,4.836,4.8408,4.8398,4.838,4.8389,4.849,4.8504,4.8444,4.8621,4.8555,4.8569,4.8608,4.8629,4.8645,4.8638,4.8373,0,0,0,0,0,4.817,4.8234,4.8256,4.8355,4.8374,4.8378,4.8412,4.84,4.8434,4.8448,4.8465,4.8499,4.8555,4.8593,4.8646,4.8766,4.8771,4.8821,4.8837,4.8851,4.8862,4.8925,4.8946,4.8716,4.8716,4.8715,0,0,4.8233,4.8257,4.8298,4.8371,4.8397,4.8461,4.839,4.8462,4.8509,4.8459,4.855,4.8564,4.86,4.8709,4.8757,4.8724,4.8928,4.8863,4.8874,4.8878,4.8937,4.8959,4.8979,4.8723,4.8721,4.872,0,0,4.838,4.8406,4.849,4.8518,4.8558,4.8559,4.858,4.8611,4.8618,4.8711,4.8674,4.8729,4.8828,4.8855,4.8882,4.904,4.9008,4.9058,4.9143,4.9204,4.9222,4.9238,4.9292,4.9312,4.907,4.907,4.907,0,4.8452,4.855,4.8537,4.8612,4.8644,4.8603,4.8688,4.8715,4.8769,4.8792,4.8755,4.8877,4.8899,4.9012,4.9051,4.9075,4.9096,4.9053,4.9221,4.9237,4.9251,4.9303,4.9323,4.9076,4.9075,4.9075,4.9074,0,4.8636,4.8704,4.8767,4.8822,4.8862,4.8941,4.894,4.8981,4.8966,4.8971,4.9065,4.909,4.9147,4.9173,4.9159,4.9284,4.9262,4.9223,4.9155,4.9279,4.9327,4.9347,4.9084,4.9082,4.908,4.9079,0,0,4.8831,4.8879,4.8902,4.8926,4.8967,4.9018,4.9096,4.9152,4.9187,4.9227,4.929,4.9375,4.9339,4.9369,4.9358,4.9412,4.9533,4.9366,4.9367,4.9394,4.967,4.9697,4.9721,4.9513,4.9517,4.952,4.9666,0,4.8978,4.9113,4.9104,4.923,4.9292,4.9254,4.9321,4.9353,4.936,4.9412,4.9419,4.9479,4.9428,4.9446,4.9498,4.9507,4.9587,4.9497,4.9569,4.9572,4.9559,4.9746,4.9775,4.9912,4.9685,4.9688,4.9691,0,4.9167,4.9214,4.9347,4.9378,4.9403,4.9464,4.9514,4.9566,4.96,4.9602,4.9636,4.9616,4.9692,4.9624,4.9727,4.9666,4.9695,4.9704,4.9709,4.9713,4.9637,4.9753,4.9956,4.9976,4.9721,4.9718,4.9716,0,4.9294,4.939,4.9482,4.9503,4.9543,4.9586,4.9604,4.9635,4.9669,4.9713,4.9735,4.9788,4.9816,4.9856,4.985,4.9802,4.9955,4.9887,4.9956,4.9957,4.9988,4.9986,5.0197,5.0011,5.0011,5.0011,5.001,0,4.9458,4.954,4.9539,4.9595,4.9685,4.9674,4.9763,4.9776,4.9804,4.9861,4.9832,4.9886,4.9875,4.9928,4.9924,5.0009,5.0023,5.0024,5.0022,5.0026,5.0025,5.0043,5.0033,5.0016,5.0015,5.0014,5.0013,0,4.9614,4.9617,4.9713,4.9743,4.9752,4.9817,4.9841,4.9894,4.9899,4.9971,4.9987,4.9995,5.0056,5.0054,5.0123,5.012,5.0225,5.0212,5.0213,5.021,5.0279,5.0271,5.0506,5.0535,5.0333,5.0335,5.0337,0,4.9717,4.9779,4.9816,4.9852,4.9873,4.9932,4.9967,4.9959,4.9996,5.0041,5.0087,5.0146,5.0192,5.0291,5.0302,5.0355,5.0342,5.042,5.0349,5.0351,5.034,5.0336,5.0341,5.0434,5.0436,5.0438,5.0439,0,4.9899,4.9898,4.995,5.0003,5.0046,5.0087,5.0125,5.0156,5.0151,5.0195,5.0258,5.0294,5.0365,5.0423,5.0473,5.049,5.0464,5.0462,5.048,5.0484,5.0481,5.0482,5.0249,5.0456,5.0454,5.0453,5.0452,5.0452,5.0031,5.0084,5.0118,5.0176,5.0204,5.024,5.029,5.0302,5.0354,5.0412,5.0404,5.0473,5.0505,5.0571,5.0593,5.0646,5.0618,5.0645,5.0652,5.0658,5.0665,5.0475,5.0655,5.0655,5.0654,5.0654,5.0654,0,5.021,5.023,5.0284,5.0338,5.0384,5.0357,5.0397,5.0437,5.0499,5.0532,5.0579,5.065,5.0706,5.0722,5.0776,5.0815,5.0804,5.083,5.0825,5.0829,5.0688,5.0665,5.0837,5.0837,5.0837,5.0837,5.0837,5.0837,5.0308,5.0396,5.0399,5.0499,5.0518,5.0587,5.0612,5.0645,5.0671,5.0752,5.0799,5.0809,5.0835,5.089,5.094,5.0943,5.0963,5.0993,5.0991,5.0858,5.084,5.0822,5.0801,5.0998,5.0998,5.1128,5.1129,5.113]}]]